Casa Grande, AZ

2:13 PM MST on February 20, 2017 (GMT -0700)
Casa Grande Municipal

Weather History for KCGZ - June, 2013

Change the Weather History Date:

Friday, June 28, 2013

  Actual Average Record
Temperature  
Mean Temperature 93 °F -  
Max Temperature 111 °F 102 °F 111 °F (2013)
Min Temperature 75 °F 71 °F 68 °F (2001)
Cooling Degree Days 28    
Growing Degree Days 43 (Base 50)    
Moisture  
Dew Point 41 °F    
Average Humidity 16    
Maximum Humidity 25    
Minimum Humidity 11    
Precipitation  
Precipitation 0.00 in - - ()
Sea Level Pressure  
Sea Level Pressure 29.86 in    
Wind  
Wind Speed 3 mph (WNW)    
Max Wind Speed 10 mph    
Max Gust Speed -    
Visibility 10 miles    
Events      
Averages and records for this station are not official NWS values.
T = Trace of Precipitation, MM = Missing Value Source: NWS Daily Summary

Daily Weather History Graph

Daily Weather History Graph

Search for Another Location

Airport or City:

Trip Planner

Search our weather history database for the weather conditions in past years. The results will help you decide how hot, cold, wet, or windy it might be!

Date:

Astronomy

Jun. 28, 2013 Rise Set
Actual Time 5:21 AM MST 7:39 PM MST
Civil Twilight 4:52 AM MST 8:08 PM MST
Nautical Twilight 4:17 AM MST 8:43 PM MST
Astronomical Twilight 3:39 AM MST 9:21 PM MST
Moon 11:32 PM MST (6/28) 11:12 AM MST (6/28)
Length of Visible Light 15h 15m
Length of Day
14h 18m
Waning Gibbous, 65% of the Moon is Illuminated
Jun 28
Waning Gibbous
Jun 29
Last Quarter
Jul 8
New
Jul 15
First Quarter
Jul 22
Full

Hourly Weather History & Observations

Time (MST) Temp. Dew Point Humidity Pressure Visibility Wind Dir Wind Speed Gust Speed Precip Events Conditions
12:15 AM 84.2 °F 33.8 °F 16% 29.91 in 10.0 mi West 6.9 mph - N/A   Clear
12:35 AM 84.2 °F 33.8 °F 16% 29.92 in 10.0 mi Calm Calm - N/A   Clear
12:55 AM 82.4 °F 32.0 °F 16% 29.91 in 10.0 mi WSW 3.5 mph - N/A   Clear
1:15 AM 80.6 °F 30.2 °F 16% 29.91 in 10.0 mi WSW 3.5 mph - N/A   Clear
1:35 AM 86.0 °F 35.6 °F 17% 29.91 in 10.0 mi WSW 3.5 mph - N/A   Clear
1:55 AM 84.2 °F 35.6 °F 18% 29.91 in 10.0 mi Calm Calm - N/A   Clear
2:15 AM 82.4 °F 33.8 °F 17% 29.91 in 10.0 mi Calm Calm - N/A   Clear
2:35 AM 82.4 °F 35.6 °F 19% 29.90 in 10.0 mi Calm Calm - N/A   Clear
2:55 AM 80.6 °F 33.8 °F 18% 29.90 in 10.0 mi ENE 6.9 mph - N/A   Clear
3:15 AM 78.8 °F 33.8 °F 20% 29.90 in 10.0 mi ENE 3.5 mph - N/A   Clear
3:35 AM 78.8 °F 33.8 °F 20% 29.91 in 10.0 mi ENE 4.6 mph - N/A   Clear
3:55 AM 78.8 °F 33.8 °F 20% 29.90 in 10.0 mi Calm Calm - N/A   Clear
4:15 AM 77.0 °F 33.8 °F 21% 29.89 in 10.0 mi Calm Calm - N/A   Clear
4:35 AM 77.0 °F 35.6 °F 22% 29.90 in 10.0 mi Calm Calm - N/A   Clear
4:55 AM 78.8 °F 37.4 °F 23% 29.91 in 10.0 mi Calm Calm - N/A   Clear
5:15 AM 77.0 °F 35.6 °F 22% 29.91 in 10.0 mi Calm Calm - N/A   Clear
5:35 AM 75.2 °F 37.4 °F 25% 29.91 in 10.0 mi Calm Calm - N/A   Clear
5:55 AM 75.2 °F 37.4 °F 25% 29.91 in 10.0 mi NE 4.6 mph - N/A   Clear
6:15 AM 78.8 °F 39.2 °F 24% 29.92 in 10.0 mi Calm Calm - N/A   Clear
6:35 AM 80.6 °F 39.2 °F 23% 29.92 in 10.0 mi Calm Calm - N/A   Clear
6:55 AM 82.4 °F 41.0 °F 23% 29.92 in 10.0 mi NE 3.5 mph - N/A   Clear
7:15 AM 84.2 °F 42.8 °F 23% 29.92 in 10.0 mi Calm Calm - N/A   Clear
7:35 AM 87.8 °F 46.4 °F 24% 29.92 in 10.0 mi Calm Calm - N/A   Clear
7:55 AM 87.8 °F 46.4 °F 24% 29.93 in 10.0 mi Calm Calm - N/A   Clear
8:15 AM 89.6 °F 44.6 °F 21% 29.93 in 10.0 mi SSE 4.6 mph - N/A   Clear
8:35 AM 91.4 °F 44.6 °F 20% 29.93 in 10.0 mi Calm Calm - N/A   Clear
8:55 AM 93.2 °F 46.4 °F 20% 29.92 in 10.0 mi West 3.5 mph - N/A   Clear
9:15 AM 95.0 °F 46.4 °F 19% 29.92 in 10.0 mi WSW 5.8 mph - N/A   Clear
9:35 AM 96.8 °F 48.2 °F 19% 29.92 in 10.0 mi Calm Calm - N/A   Clear
9:55 AM 98.6 °F 48.2 °F 18% 29.91 in 10.0 mi Calm Calm - N/A   Clear
10:15 AM 100.4 °F 46.4 °F 16% 29.92 in 10.0 mi SW 6.9 mph - N/A   Clear
10:35 AM 100.4 °F 46.4 °F 16% 29.91 in 10.0 mi WSW 5.8 mph - N/A   Clear
10:55 AM 102.2 °F 46.4 °F 15% 29.91 in 10.0 mi West 9.2 mph - N/A   Clear
11:15 AM 102.2 °F 46.4 °F 15% 29.91 in 10.0 mi West 9.2 mph - N/A   Clear
11:35 AM 102.2 °F 46.4 °F 15% 29.90 in 10.0 mi West 6.9 mph - N/A   Clear
11:55 AM 104.0 °F 46.4 °F 14% 29.89 in 10.0 mi WNW 5.8 mph - N/A   Clear
12:15 PM 105.8 °F 44.6 °F 13% 29.89 in 10.0 mi WNW 6.9 mph - N/A   Clear
12:35 PM 105.8 °F 44.6 °F 13% 29.88 in 10.0 mi Calm Calm - N/A   Partly Cloudy
12:55 PM 107.6 °F 44.6 °F 12% 29.87 in 10.0 mi NW 5.8 mph - N/A   Partly Cloudy
1:15 PM 107.6 °F 44.6 °F 12% 29.86 in 10.0 mi West 10.4 mph - N/A   Partly Cloudy
1:35 PM 107.6 °F 44.6 °F 12% 29.85 in 10.0 mi West 8.1 mph - N/A   Clear
1:55 PM 107.6 °F 44.6 °F 12% 29.84 in 10.0 mi WSW 8.1 mph - N/A   Clear
2:15 PM 109.4 °F 44.6 °F 11% 29.83 in 10.0 mi West 6.9 mph - N/A   Clear
2:35 PM 109.4 °F 44.6 °F 11% 29.82 in 10.0 mi WSW 6.9 mph - N/A   Clear
2:55 PM 109.4 °F 44.6 °F 11% 29.82 in 10.0 mi WSW 3.5 mph - N/A   Clear
3:15 PM 109.4 °F 44.6 °F 11% 29.81 in 10.0 mi West 6.9 mph - N/A   Clear
3:35 PM 109.4 °F 44.6 °F 11% 29.81 in 10.0 mi Calm Calm - N/A   Clear
3:55 PM 109.4 °F 44.6 °F 11% 29.80 in 10.0 mi North 4.6 mph - N/A   Clear
4:15 PM 109.4 °F 44.6 °F 11% 29.80 in 10.0 mi Calm Calm - N/A   Clear
4:35 PM 109.4 °F 44.6 °F 11% 29.79 in 10.0 mi ENE 4.6 mph - N/A   Clear
4:55 PM 109.4 °F 44.6 °F 11% 29.78 in 10.0 mi Calm Calm - N/A   Clear
5:15 PM 109.4 °F 44.6 °F 11% 29.77 in 10.0 mi Calm Calm - N/A   Clear
5:35 PM 111.2 °F 44.6 °F 11% 29.77 in 10.0 mi SW 3.5 mph - N/A   Clear
5:55 PM 109.4 °F 44.6 °F 11% 29.77 in 10.0 mi East 3.5 mph - N/A   Clear
6:15 PM 109.4 °F 44.6 °F 11% 29.77 in 10.0 mi SE 3.5 mph - N/A   Clear
6:35 PM 109.4 °F 44.6 °F 11% 29.77 in 10.0 mi East 6.9 mph - N/A   Clear
6:55 PM 107.6 °F 44.6 °F 12% 29.77 in 10.0 mi East 6.9 mph - N/A   Clear
7:15 PM 107.6 °F 42.8 °F 11% 29.78 in 10.0 mi ESE 4.6 mph - N/A   Clear
7:35 PM 105.8 °F 42.8 °F 12% 29.78 in 10.0 mi Calm Calm - N/A   Clear
7:55 PM 102.2 °F 41.0 °F 12% 29.78 in 10.0 mi NNE 3.5 mph - N/A   Clear
8:15 PM 100.4 °F 39.2 °F 12% 29.79 in 10.0 mi NNE 3.5 mph - N/A   Clear
8:35 PM 96.8 °F 39.2 °F 14% 29.79 in 10.0 mi West 3.5 mph - N/A   Clear
8:55 PM 96.8 °F 41.0 °F 15% 29.79 in 10.0 mi NW 5.8 mph - N/A   Clear
9:15 PM 98.6 °F 42.8 °F 15% 29.79 in 10.0 mi NNW 3.5 mph - N/A   Clear
9:35 PM 93.2 °F 39.2 °F 15% 29.79 in 10.0 mi NE 3.5 mph - N/A   Clear
9:55 PM 93.2 °F 41.0 °F 16% 29.79 in 10.0 mi North 3.5 mph - N/A   Clear
10:15 PM 91.4 °F 39.2 °F 16% 29.80 in 10.0 mi NNE 8.1 mph - N/A   Clear
10:35 PM 93.2 °F 41.0 °F 16% 29.80 in 10.0 mi NNE 3.5 mph - N/A   Clear
10:55 PM 91.4 °F 39.2 °F 16% 29.80 in 10.0 mi NE 3.5 mph - N/A   Clear
11:15 PM 95.0 °F 42.8 °F 16% 29.81 in 10.0 mi WSW 3.5 mph - N/A   Clear
11:35 PM 93.2 °F 41.0 °F 16% 29.80 in 10.0 mi SSE 4.6 mph - N/A   Clear
11:55 PM 91.4 °F 42.8 °F 18% 29.80 in 10.0 mi SE 6.9 mph - N/A   Clear